Location: Eaton Estates
(41.3089°N, 82.0057°W)
Time: 04:52:20
(UTC+00:00)

ZACube-1 - Visible Passes

Search period start: 23 March 2023 00:00
Search period end: 02 April 2023 00:00
Orbit: 578 x 654 km, 97.7° (Epoch: 22 March)

Date Brightness Start Highest point End Pass type
(mag) Time Alt. Az. Time Alt. Az. Time Alt. Az.
23 Mar ? 07:46:18 10° ENE 07:46:49 11° ENE 07:46:49 11° ENE visible
23 Mar ? 09:20:47 10° N 09:23:54 39° NNW 09:23:54 39° NNW visible
24 Mar ? 08:01:32 10° NE 08:03:10 17° ENE 08:03:10 17° ENE visible
24 Mar ? 09:37:04 10° N 09:40:16 30° NW 09:40:16 30° NW visible
25 Mar ? 08:17:08 10° NNE 08:19:30 25° ENE 08:19:30 25° ENE visible
25 Mar ? 09:53:30 10° NNW 09:56:36 22° WNW 09:56:36 22° WNW visible
26 Mar ? 08:32:55 10° NNE 08:35:50 36° NE 08:35:50 36° NE visible
26 Mar ? 10:10:10 10° NNW 10:12:40 15° WNW 10:12:56 15° WNW visible
27 Mar ? 08:48:50 10° NNE 08:52:10 52° NE 08:52:10 52° NE visible
27 Mar ? 10:27:44 10° NW 10:28:28 10° WNW 10:29:13 10° WNW visible
28 Mar ? 09:04:51 10° N 09:08:28 60° NNW 09:08:28 60° NNW visible
29 Mar ? 07:46:28 10° ENE 07:47:41 13° ENE 07:47:41 13° ENE visible
29 Mar ? 09:20:58 10° N 09:24:46 46° WNW 09:24:46 46° WNW visible
30 Mar ? 08:01:38 10° NE 08:03:57 20° ENE 08:03:57 20° ENE visible
30 Mar ? 09:37:12 10° N 09:40:56 31° WNW 09:41:03 31° WNW visible
31 Mar ? 08:17:10 10° NNE 08:20:14 29° ENE 08:20:14 29° ENE visible
31 Mar ? 09:53:35 10° NNW 09:56:47 21° WNW 09:57:19 21° WNW visible
01 Apr ? 08:32:54 10° NNE 08:36:30 45° ENE 08:36:30 45° ENE visible
01 Apr ? 10:10:13 10° NNW 10:12:35 15° WNW 10:13:36 14° W visible
